• In Österreich
  • Länderverzeichnis
  • Für 7 Tage
  • Wassertemperatur
  • Satellitenkarten
  • Wetterkarte
  • News
  • Widgets
  • user-avatar
    Anmelden

    Stündliche Wetter Darwin

    Heute, 18 August, Samstag

    Zeit Temperatur Niederschläge Wind Luftdruck Luftfeuchtigkeit
    00:00 +25°C° 0 mm 2 m/S 759 mmHg 80%
    01:00 +25°C° 0 mm 2 m/S 759 mmHg 80%
    02:00 +25°C° 0 mm 2 m/S 759 mmHg 81%
    03:00 +24°C° 0 mm 2 m/S 759 mmHg 82%
    04:00 +24°C° 0 mm 2 m/S 759 mmHg 81%
    05:00 +24°C° 0 mm 2 m/S 760 mmHg 80%
    06:00 +22°C° 0 mm 3 m/S 760 mmHg 79%
    07:00 +25°C° 0 mm 3 m/S 760 mmHg 69%
    08:00 +27°C° 0 mm 3 m/S 760 mmHg 60%
    09:00 +29°C° 0 mm 3 m/S 761 mmHg 51%
    10:00 +31°C° 0 mm 3 m/S 760 mmHg 43%
    11:00 +34°C° 0 mm 3 m/S 760 mmHg 36%
    12:00 +36°C° 0 mm 3 m/S 760 mmHg 28%
    13:00 +37°C° 0 mm 3 m/S 759 mmHg 27%
    14:00 +37°C° 0 mm 3 m/S 758 mmHg 26%
    15:00 +38°C° 0 mm 3 m/S 758 mmHg 25%
    16:00 +36°C° 0 mm 3 m/S 758 mmHg 29%
    17:00 +34°C° 0 mm 3 m/S 758 mmHg 33%
    18:00 +32°C° 0 mm 2 m/S 758 mmHg 37%
    19:00 +30°C° 0 mm 2 m/S 758 mmHg 46%
    20:00 +28°C° 0 mm 3 m/S 758 mmHg 54%
    21:00 +27°C° 0 mm 3 m/S 759 mmHg 63%
    22:00 +26°C° 0 mm 3 m/S 759 mmHg 66%
    23:00 +26°C° 0 mm 2 m/S 759 mmHg 70%

    Morgen, 19 August, Sonntag

    Zeit Temperatur Niederschläge Wind Luftdruck Luftfeuchtigkeit
    00:00 +25°C° 0 mm 2 m/S 760 mmHg 74%
    01:00 +25°C° 0 mm 2 m/S 760 mmHg 72%
    02:00 +25°C° 0 mm 3 m/S 760 mmHg 71%
    03:00 +25°C° 0 mm 3 m/S 760 mmHg 70%
    04:00 +24°C° 0 mm 3 m/S 760 mmHg 72%
    05:00 +24°C° 0 mm 3 m/S 760 mmHg 75%
    06:00 +24°C° 0 mm 3 m/S 760 mmHg 77%
    07:00 +26°C° 0 mm 4 m/S 760 mmHg 68%
    08:00 +28°C° 0 mm 4 m/S 761 mmHg 59%
    09:00 +29°C° 0 mm 5 m/S 761 mmHg 50%
    10:00 +32°C° 0 mm 5 m/S 761 mmHg 40%
    11:00 +35°C° 0 mm 5 m/S 760 mmHg 31%
    12:00 +37°C° 0 mm 5 m/S 760 mmHg 21%
    13:00 +37°C° 0 mm 5 m/S 759 mmHg 20%
    14:00 +39°C° 0 mm 5 m/S 759 mmHg 20%
    15:00 +39°C° 0 mm 5 m/S 758 mmHg 19%
    16:00 +37°C° 0 mm 4 m/S 758 mmHg 23%
    17:00 +35°C° 0 mm 4 m/S 758 mmHg 27%
    18:00 +34°C° 0 mm 4 m/S 758 mmHg 30%
    19:00 +33°C° 0 mm 3 m/S 759 mmHg 37%
    20:00 +30°C° 0 mm 3 m/S 759 mmHg 44%
    21:00 +29°C° 0 mm 3 m/S 760 mmHg 50%
    22:00 +28°C° 0 mm 3 m/S 760 mmHg 49%
    23:00 +27°C° 0 mm 3 m/S 760 mmHg 48%

    übermorgen, 20 August, Montag

    Zeit Temperatur Niederschläge Wind Luftdruck Luftfeuchtigkeit
    00:00 +26°C° 0 mm 3 m/S 760 mmHg 47%
    01:00 +25°C° 0 mm 3 m/S 760 mmHg 40%
    02:00 +25°C° 0 mm 4 m/S 760 mmHg 34%
    03:00 +23°C° 0 mm 4 m/S 760 mmHg 27%
    04:00 +23°C° 0 mm 5 m/S 760 mmHg 30%
    05:00 +22°C° 0 mm 5 m/S 760 mmHg 33%
    06:00 +22°C° 0 mm 6 m/S 760 mmHg 36%
    07:00 +24°C° 0 mm 7 m/S 761 mmHg 34%
    08:00 +27°C° 0 mm 8 m/S 761 mmHg 33%
    09:00 +29°C° 0 mm 9 m/S 761 mmHg 32%
    10:00 +32°C° 0 mm 8 m/S 761 mmHg 28%
    11:00 +33°C° 0 mm 7 m/S 761 mmHg 25%
    12:00 +35°C° 0 mm 6 m/S 760 mmHg 22%
    13:00 +36°C° 0 mm 6 m/S 759 mmHg 21%
    14:00 +36°C° 0 mm 5 m/S 759 mmHg 21%
    15:00 +37°C° 0 mm 4 m/S 758 mmHg 21%
    16:00 +36°C° 0 mm 4 m/S 758 mmHg 23%
    17:00 +34°C° 0 mm 3 m/S 758 mmHg 26%
    18:00 +33°C° 0 mm 3 m/S 758 mmHg 29%
    19:00 +30°C° 0 mm 3 m/S 758 mmHg 31%
    20:00 +29°C° 0 mm 2 m/S 759 mmHg 34%
    21:00 +27°C° 0 mm 2 m/S 760 mmHg 36%
    22:00 +27°C° 0 mm 2 m/S 760 mmHg 37%
    23:00 +26°C° 0 mm 2 m/S 760 mmHg 37%

    21 August, Dienstag

    Zeit Temperatur Niederschläge Wind Luftdruck Luftfeuchtigkeit
    00:00 +25°C° 0 mm 2 m/S 760 mmHg 37%
    01:00 +25°C° 0 mm 3 m/S 760 mmHg 40%
    02:00 +25°C° 0 mm 4 m/S 759 mmHg 42%
    03:00 +23°C° 0 mm 4 m/S 759 mmHg 45%
    04:00 +23°C° 0 mm 5 m/S 759 mmHg 49%
    05:00 +22°C° 0 mm 5 m/S 759 mmHg 54%
    06:00 +22°C° 0 mm 5 m/S 759 mmHg 59%
    07:00 +23°C° 0 mm 5 m/S 760 mmHg 55%
    08:00 +26°C° 0 mm 5 m/S 760 mmHg 52%
    09:00 +28°C° 0 mm 5 m/S 761 mmHg 49%
    10:00 +30°C° 0 mm 5 m/S 760 mmHg 43%
    11:00 +33°C° 0 mm 4 m/S 760 mmHg 36%
    12:00 +35°C° 0 mm 4 m/S 759 mmHg 30%
    13:00 +36°C° 0 mm 4 m/S 758 mmHg 28%
    14:00 +37°C° 0 mm 4 m/S 757 mmHg 27%
    15:00 +37°C° 0 mm 3 m/S 756 mmHg 26%
    16:00 +36°C° 0 mm 3 m/S 756 mmHg 30%
    17:00 +34°C° 0 mm 3 m/S 757 mmHg 35%
    18:00 +31°C° 0 mm 3 m/S 757 mmHg 39%
    19:00 +30°C° 0 mm 3 m/S 757 mmHg 46%
    20:00 +28°C° 0 mm 3 m/S 758 mmHg 53%
    21:00 +27°C° 0 mm 3 m/S 759 mmHg 60%
    22:00 +26°C° 0 mm 2 m/S 759 mmHg 64%
    23:00 +26°C° 0 mm 1 m/S 759 mmHg 67%

    22 August, Mittwoch

    Zeit Temperatur Niederschläge Wind Luftdruck Luftfeuchtigkeit
    00:00 +25°C° 0 mm 1 m/S 759 mmHg 71%
    01:00 +25°C° 0 mm 1 m/S 759 mmHg 72%
    02:00 +25°C° 0 mm 1 m/S 759 mmHg 72%
    03:00 +25°C° 0 mm 1 m/S 758 mmHg 73%
    04:00 +25°C° 0,2 mm 1 m/S 759 mmHg 74%
    05:00 +25°C° 0,2 mm 2 m/S 759 mmHg 75%
    06:00 +25°C° 0,2 mm 2 m/S 759 mmHg 77%
    07:00 +26°C° 0,1 mm 3 m/S 760 mmHg 68%
    08:00 +28°C° 0,1 mm 3 m/S 760 mmHg 60%
    09:00 +30°C° 0,1 mm 4 m/S 760 mmHg 52%
    10:00 +33°C° 0 mm 3 m/S 760 mmHg 45%
    11:00 +35°C° 0 mm 3 m/S 759 mmHg 39%
    12:00 +37°C° 0 mm 3 m/S 759 mmHg 32%
    13:00 +37°C° 0 mm 3 m/S 758 mmHg 32%
    14:00 +37°C° 0 mm 3 m/S 757 mmHg 32%
    15:00 +37°C° 0 mm 3 m/S 756 mmHg 32%
    16:00 +36°C° 0 mm 3 m/S 757 mmHg 36%
    17:00 +34°C° 0 mm 3 m/S 757 mmHg 40%
    18:00 +31°C° 0 mm 3 m/S 757 mmHg 45%
    19:00 +30°C° 0 mm 3 m/S 758 mmHg 51%
    20:00 +29°C° 0 mm 3 m/S 758 mmHg 57%
    21:00 +28°C° 0 mm 3 m/S 759 mmHg 63%
    22:00 +27°C° 0 mm 2 m/S 759 mmHg 67%
    23:00 +27°C° 0 mm 2 m/S 759 mmHg 71%

    23 August, Donnerstag

    Zeit Temperatur Niederschläge Wind Luftdruck Luftfeuchtigkeit
    00:00 +26°C° 0 mm 1 m/S 759 mmHg 75%
    01:00 +26°C° 0 mm 1 m/S 759 mmHg 76%
    02:00 +26°C° 0 mm 1 m/S 759 mmHg 78%
    03:00 +23°C° 0 mm 0 m/S 759 mmHg 79%
    04:00 +25°C° 0,1 mm 1 m/S 759 mmHg 80%
    05:00 +25°C° 0,1 mm 1 m/S 759 mmHg 82%
    06:00 +25°C° 0,1 mm 2 m/S 759 mmHg 83%
    07:00 +26°C° 0,1 mm 2 m/S 760 mmHg 74%
    08:00 +28°C° 0,1 mm 2 m/S 760 mmHg 66%
    09:00 +30°C° 0,1 mm 3 m/S 760 mmHg 57%
    10:00 +33°C° 0 mm 3 m/S 760 mmHg 51%
    11:00 +34°C° 0 mm 3 m/S 760 mmHg 45%
    12:00 +36°C° 0 mm 3 m/S 759 mmHg 38%
    13:00 +36°C° 0 mm 3 m/S 758 mmHg 38%
    14:00 +36°C° 0 mm 3 m/S 758 mmHg 37%
    15:00 +36°C° 0 mm 3 m/S 757 mmHg 36%
    16:00 +35°C° 0 mm 3 m/S 757 mmHg 39%
    17:00 +34°C° 0 mm 2 m/S 757 mmHg 41%
    18:00 +32°C° 0 mm 2 m/S 757 mmHg 43%
    19:00 +31°C° 0 mm 3 m/S 758 mmHg 47%
    20:00 +30°C° 0 mm 3 m/S 759 mmHg 51%
    21:00 +28°C° 0 mm 3 m/S 759 mmHg 56%
    22:00 +28°C° 0 mm 3 m/S 759 mmHg 62%
    23:00 +27°C° 0 mm 2 m/S 759 mmHg 68%
    Mehr zeigen